Weather History for Whiteman AFB, MO

Change the Weather History Date:

Sunday, November 18, 2012

  Actual Average Record
Temperature  
Mean Temperature 52 °F -  
Max Temperature 64 °F 52 °F 80 °F (1999)
Min Temperature 39 °F 34 °F 10 °F (2014)
Degree Days  
Heating Degree Days 14    
Growing Degree Days 2 (Base 50)    
Moisture  
Dew Point 31 °F    
Average Humidity 47    
Maximum Humidity 67    
Minimum Humidity 31    
Precipitation  
Precipitation 0.00 in - - ()
Sea Level Pressure  
Sea Level Pressure 30.26 in    
Wind  
Wind Speed 8 mph (SSE)    
Max Wind Speed 15 mph    
Max Gust Speed -    
Visibility 10 miles    
Events Rain    
Averages and records for this station are not official NWS values.
T = Trace of Precipitation, MM = Missing Value Source: NWS Daily Summary

Daily Weather History Graph

Daily Weather History Graph

Search for Another Location

Airport:

Trip Planner

Search our weather history database for the weather conditions in past years. The results will help you decide how hot, cold, wet, or windy it might be!

Date:

Astronomy

Nov. 18, 2012 Rise Set
Actual Time 7:00 AM CST 4:58 PM CST
Civil Twilight 6:31 AM CST 5:26 PM CST
Nautical Twilight 5:59 AM CST 5:59 PM CST
Astronomical Twilight 5:27 AM CST 6:30 PM CST
Moon 11:28 AM CST (11/18) 10:17 PM CST (11/18)
Length of Visible Light 10h 55m
Length of Day
9h 57m
Waxing Crescent, 30% of the Moon is Illuminated
Nov 18
Waxing Crescent
Nov 20
First Quarter
Nov 28
Full
Dec 6
Last Quarter
Dec 13
New

Hourly Weather History & Observations

Time (CST) Temp. Windchill Dew Point Humidity Pressure Visibility Wind Dir Wind Speed Gust Speed Precip Events Conditions
12:55 AM 44.1 °F 40.1 °F 28.8 °F 55% 30.32 in 10.0 mi South 6.9 mph - N/A   Clear
1:55 AM 39.9 °F 35.1 °F 29.8 °F 67% 30.32 in 10.0 mi South 6.9 mph - N/A   Clear
2:55 AM 41.4 °F 38.4 °F 29.8 °F 64% 30.31 in 10.0 mi SSE 4.6 mph - N/A   Clear
3:55 AM 41.4 °F 36.8 °F 30.2 °F 65% 30.31 in 10.0 mi SSE 6.9 mph - N/A   Clear
4:55 AM 40.8 °F 36.2 °F 29.5 °F 64% 30.31 in 10.0 mi SSE 6.9 mph - N/A   Clear
5:55 AM 39.6 °F 35.4 °F 28.6 °F 65% 30.31 in 10.0 mi SSE 5.8 mph - N/A   Clear
6:55 AM 39.0 °F 34.0 °F 27.7 °F 64% 30.31 in 10.0 mi SSE 6.9 mph - N/A   Clear
7:55 AM 40.1 °F 35.3 °F 27.7 °F 61% 30.31 in 10.0 mi SSE 6.9 mph - N/A   Clear
8:55 AM 43.9 °F 39.3 °F 28.8 °F 55% 30.31 in 10.0 mi South 8.1 mph - N/A   Clear
9:55 AM 49.5 °F - 31.3 °F 50% 30.32 in 10.0 mi South 6.9 mph - N/A   Clear
10:55 AM 54.9 °F - 32.0 °F 42% 30.32 in 10.0 mi South 12.7 mph - N/A   Clear
11:55 AM 60.4 °F - 33.6 °F 37% 30.28 in 10.0 mi SSW 15.0 mph - N/A   Clear
12:55 PM 62.6 °F - 34.9 °F 36% 30.24 in 10.0 mi South 11.5 mph - N/A   Clear
1:55 PM 64.4 °F - 33.1 °F 31% 30.22 in 10.0 mi SSW 12.7 mph - N/A   Clear
2:55 PM 62.8 °F - 32.4 °F 32% 30.20 in 10.0 mi SSW 10.4 mph - N/A   Partly Cloudy
3:55 PM 63.1 °F - 32.0 °F 31% 30.19 in 10.0 mi SSE 8.1 mph - N/A   Clear
4:55 PM 58.8 °F - 31.1 °F 35% 30.20 in 10.0 mi SSE 5.8 mph - N/A   Partly Cloudy
5:55 PM 57.0 °F - 30.4 °F 36% 30.22 in 10.0 mi SSE 4.6 mph - N/A   Mostly Cloudy
6:55 PM 55.2 °F - 30.9 °F 40% 30.22 in 10.0 mi SSE 8.1 mph - N/A   Partly Cloudy
7:55 PM 54.9 °F - 29.3 °F 38% 30.21 in 10.0 mi SSE 9.2 mph - N/A   Mostly Cloudy
8:55 PM 54.5 °F - 27.5 °F 35% 30.22 in 10.0 mi SSE 11.5 mph - N/A   Mostly Cloudy
9:55 PM 54.1 °F - 28.6 °F 37% 30.21 in 10.0 mi SSE 9.2 mph - N/A   Scattered Clouds
10:05 PM 53.6 °F - 30.2 °F 41% 30.22 in 10.0 mi SSE 10.4 mph - N/A Rain Light Rain
10:28 PM 51.8 °F - 33.8 °F 50% 30.19 in 10.0 mi SSE 11.5 mph - N/A   Mostly Cloudy
10:55 PM 53.1 °F - 32.7 °F 46% 30.19 in 10.0 mi SSE 10.4 mph - 0.00 in   Mostly Cloudy
11:55 PM 53.4 °F - 33.8 °F 47% 30.20 in 10.0 mi South 10.4 mph - N/A   Overcast